Regional Weather Roundup
Issued by NWS Columbia, SC

Home | Current Version | Previous Version | Text Only | Print | Product List | Glossary On
Versions: 1 2 3 4 5 6 7 8 9 10 11 12 13 14 15 16 17 18 19 20 21 22 23 24 25 26 27 28 29 30 31 32 33 34 35 36 37 38 39 40 41 42 43 44 45 46 47 48 49 50
000
ASUS42 KCAE 290310
RWRCAE
REGIONAL WEATHER ROUNDUP
NATIONAL WEATHER SERVICE COLUMBIA SC
1100 PM EDT WED JUN 28 2017

NOTE: "FAIR" INDICATES FEW OR NO CLOUDS BELOW 12,000 FEET WITH NO
SIGNIFICANT WEATHER AND/OR OBSTRUCTIONS TO VISIBILITY.

NOT ALL STATIONS ARE QUALITY CONTROLLED BY THE NATIONAL
WEATHER SERVICE. USE DATA WITH CAUTION...ESPECIALLY
DEWPOINT OBSERVATIONS.

SCZ001>056-GAZ040-063>065-077-290400-
...UPSTATE SOUTH CAROLINA...

CITY           SKY/WX    TMP DP  RH WIND       PRES   REMARKS
ANDERSON       MOCLDY    74  61  63 E6        30.17R
LIBERTY        PTCLDY    65  63  91 CALM      30.18S
SPARTANBURG    PTCLDY    68  61  77 CALM      30.18R
CLEMSON        PTCLDY    73  63  70 CALM      30.18R
GREENVILLE     MOCLDY    76  58  53 SE3       30.20R
GREENWOOD      CLEAR     71  59  65 E3        30.19R
GREER          MOCLDY    70  59  68 S6        30.18R
ROCK HILL      CLEAR     69  60  73 CALM      30.20R
CHESTER        CLEAR     70  59  68 CALM      30.19S
LAURENS        CLEAR     73  59  60 SE5       30.18R


...CENTRAL SOUTH CAROLINA...

CITY           SKY/WX    TMP DP  RH WIND       PRES   REMARKS
COLUMBIA APT   CLEAR     76  61  59 SE3       30.17R
COLUMBIA OWENS PTCLDY    76  61  59 CALM      30.18R
MCENTIRE ANGB  CLEAR     67  65  91 SE3       30.18R
ORANGEBURG     CLEAR     73  62  68 CALM      30.19R
SUMTER SHAW    PTCLDY    73  60  63 S5        30.16R
NEWBERRY       CLEAR     73  61  64 SE3       30.20R
AIKEN          MOCLDY    73  63  68 SE3       30.21R
BARNWELL       FAIR      77  66  69 SE6       30.18R
MANNING        FAIR      70  63  78 SE6       30.19R
CAMDEN         FAIR      72  59  64 CALM      30.18S
LANCASTER      CLEAR     72  63  73 SE3       30.19R
WINNSBORO      CLEAR     72  59  64 SE6       30.18S


...EASTERN AND COASTAL SOUTH CAROLINA...

CITY           SKY/WX    TMP DP  RH WIND       PRES   REMARKS
MYRTLE BEACH   CLEAR     76  59  55 SE10      30.21R
N MYRTLE BCH   CLEAR     78  59  51 SE7       30.20R
CONWAY         FAIR      64  61  88 CALM      30.20S
MARION         FAIR      68  61  77 CALM      30.20R
HARTSVILLE     FAIR      72  57  60 SE5       30.18R
FLORENCE       CLEAR     71  62  73 S6        30.20R
DARLINGTON     PTCLDY    73  62  68 S8        30.19R
CHARLESTON APT CLEAR     75  63  66 E5        30.18R
MOUNT PLEASANT FAIR      70  66  88 CALM      30.19R
WALTERBORO     CLEAR     70  63  78 CALM      30.19R
BEAUFORT       CLEAR     79  70  74 E5        30.17R


...EASTERN GEORGIA...

CITY           SKY/WX    TMP DP  RH WIND       PRES   REMARKS
AUGUSTA BUSH F CLEAR     77  66  68 SE8       30.16R
AUGUSTA DANIEL CLEAR     80  63  55 SE7       30.17R
THOMSON        CLEAR     77  66  69 SW6       30.21R
WASHINGTON     FAIR      77  68  73 S7        30.16R
CLAXTON        FAIR      73  69  86 NE3       30.15S
SYLVANIA       CLEAR     74  69  82 E5        30.18R
STATESBORO     CLEAR     75  70  83 E3        30.16S
SAVANNAH       PTCLDY    78  69  73 E7        30.16R


...SOUTHERN NORTH CAROLINA...

CITY           SKY/WX    TMP DP  RH WIND       PRES   REMARKS
CHARLOTTE      PTCLDY    77  56  48 SE8       30.20R
MONROE         MOCLDY    69  58  67 CALM      30.19R
WADESBORO      CLEAR     66  61  84 CALM      30.18S
ROCKINGHAM     PTCLDY    72  58  62 SE5       30.19R
RUTHERFORDTON  MOCLDY    67  64  88 CALM      30.21R
ASHEVILLE      CLEAR     64  57  78 CALM      30.25R

$$



USA.gov is the U.S. government's official web portal to all federal, state and local government web resources and services.